Location: Unspecified
(0.0000°N, 0.0000°E)
Time: 06:31:47
(UTC+00:00)

STRAND 1 - Visible Passes

Search period start: 16 June 2019 00:00
Search period end: 26 June 2019 00:00
Orbit: 769 x 780 km, 98.5° (Epoch: 15 June)

Date Brightness Start Highest point End Pass type
(mag) Time Alt. Az. Time Alt. Az. Time Alt. Az.
16 Jun ? 19:05:32 10° NNE 19:10:40 78° ESE 19:15:48 10° S visible
17 Jun ? 18:32:22 10° NE 18:36:47 29° ESE 18:41:11 10° SSE visible
17 Jun ? 20:12:30 10° NW 20:15:41 17° WNW 20:18:51 10° WSW visible
18 Jun ? 19:36:58 10° N 19:41:48 43° WNW 19:46:38 10° SSW visible
19 Jun ? 19:02:48 10° NNE 19:07:54 72° ESE 19:13:01 10° S visible
20 Jun ? 18:29:44 10° NE 18:34:01 27° ESE 18:38:18 10° SSE visible
20 Jun ? 20:09:32 10° NW 20:12:55 18° WNW 20:16:19 10° WSW visible
21 Jun ? 19:34:09 10° N 19:39:03 46° WNW 19:43:56 10° SSW visible
22 Jun ? 19:00:04 10° NNE 19:05:09 66° ESE 19:10:14 10° S visible
23 Jun ? 18:27:07 10° NE 18:31:16 25° ESE 18:35:25 10° SSE visible
23 Jun ? 20:06:34 10° NNW 20:10:09 19° WNW 20:13:45 10° WSW visible
24 Jun ? 19:31:21 10° N 19:36:17 50° WNW 19:41:14 10° SSW visible
25 Jun ? 18:57:21 10° NNE 19:02:23 61° ESE 19:07:26 10° S visible
